Dewpoint
61 49 44 45 37 33 28 36 39 38 37 35 35 34 30 30 29 29 47 54 55 51 60 69 72 72 71 71 70 70 69 69 67 65 64 64 64 63 63 63 63 63 62 62 62 62 63 62 61
42 40 45 43 32 33 31 40 38 38 37 37 37 34 30 29 28 31 42 54 54 52 61 63 72 72 71 71 71 70 70 69 67 66 66 65 65 65 65 65 65 65 64 64 63 63 64 64 64
41 44 43 42 40 34 32 38 37 36 35 34 32 29 28 31 32 33 48 55 55 54 58 64 72 72 72 72 72 71 70 70 68 67 66 66 65 65 66 66 66 65 64 64 63 63 63 65 65
40 45 42 38 34 35 38 37 38 36 34 32 31 31 29 33 34 38 51 55 53 52 56 65 72 72 72 72 72 72 71 70 69 67 67 67 66 68 69 67 67 67 65 65 64 64 65 66 64
42 40 31 33 33 34 38 38 36 35 34 32 29 31 32 35 37 41 51 53 51 52 54 60 72 73 72 72 72 72 72 71 70 69 68 68 69 69 69 68 67 67 66 66 66 65 66 66 66
38 37 32 29 29 33 34 33 33 33 33 32 29 29 31 36 38 40 48 54 50 52 57 61 72 73 72 72 72 72 72 71 71 71 70 70 70 70 69 68 67 66 66 66 66 66 67 67 67
36 33 27 27 28 30 30 32 32 31 33 32 33 31 34 36 41 43 46 52 54 53 56 61 66 71 73 72 72 72 72 72 72 71 71 71 70 70 68 67 66 65 64 65 65 65 66 66 66
36 34 31 28 28 27 30 31 31 31 32 36 34 33 35 40 43 43 45 45 52 53 54 58 65 64 67 67 73 72 72 72 72 72 72 71 70 69 67 67 65 64 64 64 64 64 65 66 66
40 34 29 27 27 28 32 30 34 36 34 33 34 36 37 40 41 43 45 45 46 48 55 56 58 61 64 63 65 72 72 72 72 70 70 70 64 61 62 64 63 64 63 63 63 63 63 64 65
40 33 30 30 30 29 29 31 30 34 35 34 31 35 37 40 41 42 42 41 45 47 51 54 60 62 63 59 64 69 65 65 64 64 66 65 63 62 61 63 63 64 63 63 63 63 63 64 61
38 34 32 32 31 32 31 33 31 32 33 35 32 34 36 37 39 40 42 42 41 44 49 53 63 64 64 61 62 64 63 62 63 66 66 65 62 61 61 60 60 63 63 60 59 59 58 57 58
36 36 36 34 33 33 34 35 33 34 35 35 33 33 34 37 38 34 34 40 42 43 48 54 59 66 67 61 62 62 60 60 60 60 65 65 62 63 63 60 60 63 59 60 60 57 60 60 60
31 34 34 34 36 36 36 35 36 34 34 34 31 30 31 33 34 34 35 39 46 45 48 54 61 66 68 67 63 62 60 57 59 59 62 63 61 62 62 62 61 63 59 58 59 57 58 59 59
29 28 29 33 35 36 35 34 33 32 33 30 27 27 27 27 30 34 38 44 48 49 51 55 61 66 67 68 67 63 62 58 59 58 60 64 63 63 61 62 62 61 61 59 63 58 58 58 58
29 29 29 30 30 31 32 30 27 27 25 25 26 29 29 30 31 38 42 47 48 51 54 57 62 65 67 67 65 62 59 60 57 58 64 64 65 64 65 63 62 63 63 65 64 61 60 58 58
26 29 25 27 27 27 28 25 26 25 24 26 29 29 29 30 33 37 40 45 51 54 55 58 57 63 66 66 63 59 59 59 58 60 62 65 65 66 66 65 63 66 64 64 63 61 58 57 61
26 24 26 26 25 23 24 24 25 24 25 29 31 32 30 30 35 41 42 47 51 54 57 58 60 61 64 65 62 62 63 60 59 61 61 63 65 65 65 65 66 66 63 64 63 60 59 62 63
24 25 26 27 27 22 21 22 25 24 25 30 31 32 31 32 35 39 45 49 51 56 59 59 59 62 64 62 62 60 59 59 60 61 61 64 64 64 65 66 65 66 63 63 63 60 61 61 64
25 26 26 26 26 25 24 24 25 28 30 31 32 33 33 34 39 42 49 51 53 57 59 60 61 64 61 60 57 57 55 58 60 61 63 63 64 64 66 67 65 64 63 62 60 64 62 63 64
22 24 25 25 25 26 25 25 28 30 31 32 32 32 33 35 39 42 51 53 56 58 59 61 62 64 62 59 59 57 58 59 60 61 63 64 63 64 65 65 64 62 60 61 62 63 64 63 65
20 21 24 23 24 25 25 25 28 30 31 31 31 32 31 30 40 45 51 55 56 58 60 61 63 64 63 63 61 63 62 61 58 60 60 62 63 63 64 63 63 61 60 61 64 64 62 62 63
20 20 20 21 21 18 23 23 30 31 32 32 31 31 29 34 40 47 52 55 56 58 59 61 63 64 63 64 62 62 56 55 58 58 61 61 63 62 63 64 63 62 63 64 64 63 62 64 62
17 19 20 22 22 24 23 23 28 31 31 31 31 31 29 38 41 48 51 54 55 57 59 61 63 62 64 64 63 60 60 58 59 60 62 64 65 63 61 62 63 63 66 64 63 61 63 62 64
15 18 22 24 23 22 25 25 27 29 32 32 32 25 27 43 47 50 52 54 55 56 58 60 61 63 63 64 64 62 62 60 59 60 63 64 66 65 63 61 63 64 65 62 60 61 62 65 64
17 23 19 22 22 23 26 26 29 33 29 31 27 26 40 46 49 51 52 52 54 56 57 58 61 62 63 63 62 62 62 62 62 62 63 63 65 64 62 63 62 64 63 61 61 62 63 63 62
19 24 17 19 22 23 27 26 27 28 30 31 27 27 41 46 49 51 51 53 53 55 57 57 59 60 61 61 61 62 63 60 61 62 63 62 65 61 63 63 63 62 62 62 63 65 64 65 65
20 20 21 24 25 19 22 26 27 27 25 24 25 27 41 47 50 51 52 53 54 56 57 58 58 58 60 60 61 62 62 63 61 63 65 67 63 61 62 62 62 61 61 62 63 65 63 65 64
20 22 22 22 24 22 19 20 22 24 24 27 34 33 39 48 49 50 52 53 54 56 58 58 57 58 59 60 60 60 61 61 62 64 63 63 64 61 61 62 62 61 61 62 63 64 63 63 62
16 20 23 25 21 22 18 16 26 27 27 33 34 37 45 48 48 50 50 52 53 55 55 56 56 58 59 59 60 60 61 61 62 64 62 63 64 61 60 60 61 61 61 62 63 63 62 61 63
17 20 25 19 24 19 16 14 31 32 35 32 33 42 46 47 48 48 49 52 52 54 54 54 56 55 57 57 58 59 61 61 63 62 61 63 62 61 59 59 60 59 60 61 61 59 59 60 61
Lifted_Index
6 7 6 4 3 3 2 0 -0 0 1 2 2 2 2 2 2 1 0 -1 -1 -1 -2 -4 -4 -4 -3 -2 -2 -1 -0 0 1 2 2 2 2 2 2 2 2 2 2 3 3 2 2 3 3
7 6 5 3 2 1 0 -0 -0 0 1 2 2 2 2 2 2 2 0 -1 -1 -1 -2 -3 -5 -4 -3 -3 -2 -2 -1 -1 -0 1 1 1 1 1 1 1 1 1 2 2 2 2 2 2 2
6 5 3 2 1 -0 -1 -1 -0 1 1 2 2 2 2 2 2 2 0 -1 -1 -1 -2 -4 -5 -5 -4 -3 -3 -3 -3 -2 -1 -1 -0 0 0 0 -0 -0 0 0 1 1 2 2 1 1 1
5 4 3 2 1 -0 -1 -0 0 1 1 2 2 2 2 2 2 2 -0 -1 -1 -1 -2 -4 -5 -5 -4 -4 -4 -4 -4 -4 -3 -2 -1 -1 -1 -1 -1 -1 -1 -0 0 1 1 2 1 1 1
3 3 2 2 1 0 0 0 1 1 1 2 2 2 2 2 2 2 -0 -1 -1 -2 -2 -4 -5 -5 -5 -5 -5 -5 -5 -5 -4 -3 -3 -2 -2 -2 -2 -2 -2 -1 -0 0 1 1 1 1 1
2 2 2 2 1 1 1 1 1 1 1 2 2 2 1 1 2 1 -0 -1 -2 -2 -3 -4 -6 -6 -6 -5 -5 -5 -6 -5 -5 -5 -4 -4 -4 -3 -3 -2 -2 -1 -0 0 0 1 1 1 1
2 2 2 1 1 1 1 1 1 0 1 1 1 1 1 1 1 1 -0 -1 -2 -2 -3 -4 -5 -6 -6 -6 -6 -6 -6 -6 -6 -6 -5 -5 -5 -4 -3 -2 -1 -0 0 0 1 1 1 1 1
2 2 1 1 1 1 1 1 1 1 1 1 1 1 0 -0 -0 0 -0 -1 -2 -2 -3 -4 -5 -6 -6 -6 -6 -7 -7 -7 -7 -6 -6 -5 -4 -3 -2 -2 -1 -0 0 1 1 1 1 1 1
1 1 1 1 1 1 1 1 1 1 1 1 1 0 0 -0 -0 -1 -1 -1 -2 -2 -3 -4 -5 -5 -5 -5 -5 -6 -7 -6 -6 -6 -5 -5 -3 -2 -1 -1 -1 -0 0 0 1 1 1 0 0
1 1 1 1 1 1 1 1 1 1 1 1 1 0 0 -0 -1 -1 -1 -1 -1 -2 -3 -3 -4 -5 -5 -5 -5 -5 -6 -5 -5 -5 -4 -4 -2 -1 -1 -1 -1 -1 -0 0 0 1 1 0 0
1 1 1 1 1 1 1 1 1 1 2 1 1 1 0 -0 -0 -1 -1 -1 -1 -2 -2 -3 -4 -5 -5 -5 -5 -5 -5 -4 -4 -4 -4 -3 -2 -2 -1 -1 -1 -1 -1 -0 0 1 1 1 1
1 1 1 1 0 0 0 1 1 2 2 2 1 1 1 1 1 0 -0 -1 -1 -1 -2 -3 -4 -5 -5 -5 -5 -5 -5 -4 -3 -3 -3 -3 -2 -2 -2 -1 -1 -1 -0 0 1 1 1 1 1
2 1 1 1 1 0 0 1 1 2 3 2 2 2 2 2 2 2 1 0 -1 -1 -2 -3 -4 -5 -6 -6 -5 -5 -4 -3 -2 -2 -2 -3 -2 -2 -2 -2 -1 -1 -0 0 1 1 1 1 1
2 2 2 2 1 1 1 1 2 3 3 3 3 3 3 3 3 3 2 1 -0 -1 -2 -2 -4 -5 -6 -6 -5 -4 -4 -3 -2 -2 -2 -2 -2 -2 -2 -2 -1 -1 -0 -0 0 1 1 1 1
3 3 2 2 2 2 2 2 3 3 4 4 3 3 3 3 3 3 2 1 -0 -1 -2 -2 -3 -4 -5 -5 -5 -4 -3 -3 -2 -2 -3 -3 -3 -2 -2 -2 -1 -1 -1 -1 -1 0 0 0 1
4 3 3 3 3 3 3 3 3 3 4 3 3 3 3 4 4 3 2 1 0 -1 -1 -2 -2 -4 -5 -5 -4 -3 -3 -3 -2 -2 -3 -3 -3 -3 -2 -2 -2 -1 -1 -1 -1 -0 0 0 0
4 4 3 2 2 3 4 4 4 3 4 3 2 2 3 4 3 3 2 1 0 -0 -1 -1 -2 -3 -4 -4 -3 -3 -3 -3 -3 -3 -3 -3 -3 -2 -2 -2 -2 -2 -1 -1 -1 -0 -0 -0 -0
4 4 3 2 1 3 4 4 3 3 3 3 2 2 3 4 3 2 2 1 0 -0 -0 -0 -1 -2 -3 -3 -3 -3 -2 -2 -3 -3 -3 -2 -2 -2 -2 -2 -2 -2 -1 -1 -1 -1 -1 -1 -1
4 3 3 2 2 2 3 4 3 3 3 2 2 2 3 3 2 2 1 1 1 0 -0 -0 -1 -2 -3 -3 -2 -2 -2 -2 -3 -3 -2 -2 -2 -2 -2 -2 -2 -1 -1 -1 -1 -1 -1 -1 -1
4 4 3 2 2 2 3 3 3 2 2 2 2 2 3 3 2 1 1 1 0 0 -0 -1 -1 -2 -2 -2 -2 -2 -2 -2 -2 -2 -2 -2 -2 -2 -2 -2 -2 -1 -1 -1 -1 -1 -1 -2 -2
5 4 4 3 2 2 2 3 3 2 2 2 2 3 3 3 1 1 0 0 0 -0 -0 -1 -1 -2 -2 -2 -2 -2 -2 -2 -2 -1 -2 -2 -2 -2 -2 -2 -1 -1 -1 -1 -2 -2 -2 -2 -2
5 5 4 3 3 3 3 3 3 3 3 2 2 3 3 2 1 0 -0 -0 -0 -0 -1 -1 -1 -1 -2 -2 -2 -2 -1 -1 -1 -1 -1 -2 -2 -2 -2 -2 -2 -1 -2 -2 -2 -2 -2 -2 -3
6 5 4 4 3 3 3 4 4 3 3 2 2 3 3 1 0 0 -0 -0 -0 -0 -1 -1 -1 -1 -2 -2 -2 -1 -1 -1 -1 -1 -2 -2 -2 -2 -2 -2 -2 -2 -2 -2 -2 -2 -2 -3 -3
6 5 4 4 3 3 4 4 4 4 3 2 2 3 2 1 0 -0 0 0 -0 -0 -1 -1 -1 -1 -2 -2 -2 -1 -1 -1 -1 -1 -2 -2 -2 -2 -2 -2 -2 -2 -2 -2 -2 -2 -2 -3 -3
6 5 3 2 2 3 3 4 4 3 3 3 3 3 2 0 -0 -0 -0 -0 -0 -0 -0 -0 -1 -1 -2 -2 -1 -1 -1 -1 -1 -2 -2 -2 -2 -2 -2 -2 -2 -2 -2 -2 -2 -2 -2 -2 -3
6 5 3 1 1 2 3 4 4 4 3 3 4 3 1 -0 -0 -0 -0 -0 -0 -0 -0 -0 -1 -1 -1 -1 -1 -1 -2 -2 -2 -2 -2 -2 -2 -2 -2 -2 -2 -2 -2 -2 -2 -3 -3 -3 -3
6 5 4 2 1 1 2 3 4 4 3 4 4 3 1 -0 -1 -1 -0 -0 -0 -0 -0 -0 -0 -1 -1 -1 -1 -2 -2 -2 -2 -2 -2 -2 -2 -2 -2 -2 -2 -2 -2 -2 -2 -3 -2 -2 -2
5 5 4 3 1 1 1 3 3 3 3 3 3 2 1 -0 -1 -1 -0 -0 0 -0 -0 -0 -0 -0 -1 -1 -1 -2 -2 -1 -1 -1 -2 -2 -2 -2 -2 -2 -2 -2 -2 -2 -2 -2 -2 -2 -2
5 5 4 4 2 1 1 2 3 3 3 2 2 1 0 -0 -0 -0 -0 0 0 -0 -0 0 0 -0 -1 -1 -1 -1 -1 -1 -1 -1 -1 -2 -2 -2 -1 -1 -2 -2 -2 -2 -2 -2 -2 -2 -2
5 5 5 4 3 2 1 2 3 3 2 2 1 0 -0 -0 -0 -0 -0 0 0 -0 0 0 0 0 -0 -1 -1 -1 -1 -1 -1 -1 -1 -2 -2 -2 -1 -1 -1 -1 -2 -2 -1 -1 -1 -2 -2